Lid_Strength_Index
3 5 5 6 10 13 14 13 11 11 11 8 9 10 11 10 10 12 5 2 0 0 -0 -0 -1 -1 -1 -1 -1 -1 -1 -1 -1 -1 -1 -1 -1 -1 -1 -1 -1 -1 -1 -1 -1 0 0 1 0
4 4 6 10 13 16 15 14 12 12 10 10 10 10 10 10 7 5 4 2 0 0 -0 -0 0 -1 -1 -1 -1 -1 -1 -2 -1 -1 -1 -1 -1 -1 -1 -1 -1 -1 -1 -1 -1 0 1 1 1
4 6 9 12 16 16 15 13 13 11 10 10 10 8 9 9 6 5 3 2 0 0 -0 -0 0 -1 -1 -1 -1 -1 -1 -1 -1 -1 -1 -1 -1 -1 -1 -1 -1 -1 -1 -1 -1 -1 0 0 1
6 8 11 14 14 13 12 11 12 11 10 9 10 10 9 7 6 5 3 0 1 1 0 0 -0 -1 -1 -1 -1 -1 -1 -1 -1 -1 -1 -2 -2 -2 -2 -1 -1 -1 -1 -1 -1 -1 0 1 1
8 11 13 14 14 13 12 11 11 11 11 10 10 11 10 7 4 3 2 1 1 1 1 0 -0 -1 -1 -1 -1 -1 -1 -1 -1 -1 -1 -2 -2 -2 -1 -1 -1 -1 -1 -1 -1 -1 0 0 1
9 11 15 16 14 13 12 11 11 12 11 11 9 10 10 7 5 3 3 3 2 1 1 0 1 1 -0 -1 -1 -1 -1 -1 -1 -1 -1 -2 -2 -2 -1 -1 -1 -1 -1 -1 -1 -0 0 1 1
10 13 15 15 15 13 12 10 10 11 12 12 10 10 10 9 7 4 3 3 2 2 1 1 0 1 2 1 0 -0 -1 -1 -1 -1 -1 -1 -2 -2 -2 -1 -1 -1 -1 -1 -1 -0 1 2 2
10 12 14 15 15 14 11 11 11 12 12 10 10 12 11 7 7 6 4 4 4 3 2 1 1 1 1 1 2 1 0 0 -0 -0 0 0 0 -0 -1 -1 -2 -1 -1 -1 -1 -0 1 2 3
10 14 16 15 14 13 12 11 11 11 10 11 10 10 10 8 7 7 7 5 5 3 2 2 1 1 1 1 1 2 2 1 1 1 2 2 1 1 1 0 -1 -1 -2 -1 -1 -0 1 3 4
12 15 14 13 13 13 11 12 11 12 11 12 12 10 9 8 7 7 7 6 5 4 4 3 2 1 1 0 1 1 1 1 1 2 2 2 2 2 2 3 1 -1 -1 -2 -1 0 1 5 11
12 14 12 11 10 11 11 12 11 13 12 11 11 11 10 10 9 8 9 8 7 5 4 3 2 2 2 1 1 2 3 2 1 2 3 2 2 3 3 4 4 4 2 2 1 3 6 8 11
12 10 10 9 10 11 11 11 11 11 10 9 10 10 10 11 11 11 11 11 9 7 5 3 2 3 3 2 1 2 3 3 2 3 2 2 3 4 4 5 5 5 5 4 5 6 7 9 11
13 12 10 10 10 11 11 11 11 11 9 10 10 11 11 11 11 11 11 10 10 10 8 5 2 2 3 3 3 3 3 4 3 3 3 2 3 3 3 4 5 6 6 6 6 7 7 9 11
12 12 11 11 11 11 11 13 11 11 11 11 11 12 12 12 12 12 11 11 11 10 9 8 4 2 2 3 3 3 4 4 4 4 3 2 3 3 4 5 4 5 6 6 6 7 8 9 11
12 13 12 12 12 12 12 14 13 11 11 12 12 12 12 12 12 12 12 12 11 10 9 7 4 2 2 4 4 4 4 4 3 3 3 3 3 3 4 4 5 4 7 6 7 8 9 10 11
14 15 16 13 13 13 13 15 11 12 13 14 13 14 13 13 12 12 12 12 11 11 11 9 7 4 4 4 4 4 4 4 2 2 3 3 3 4 5 6 6 6 7 6 7 8 9 11 12
16 18 17 14 13 13 14 16 12 11 13 15 15 14 14 14 13 13 13 13 12 12 11 11 10 9 6 5 4 4 4 4 3 2 2 2 2 3 4 5 5 5 5 6 6 8 10 11 12
17 18 17 17 14 14 15 15 13 12 13 15 16 16 15 15 15 14 14 13 13 12 12 12 11 11 9 7 6 6 7 7 7 7 6 5 3 2 3 4 5 5 5 6 8 8 11 12 12
15 17 18 17 14 15 15 16 15 14 15 16 16 16 16 16 15 14 14 14 14 13 13 12 12 12 11 11 10 9 10 10 10 10 10 10 9 6 4 5 5 6 6 7 8 9 10 11 13
15 17 17 15 14 15 16 15 16 16 16 16 16 16 16 16 15 15 15 15 15 15 14 13 13 13 12 12 12 11 11 12 12 11 12 12 11 11 9 8 7 7 8 9 9 10 11 12 13
17 17 17 16 16 16 17 17 17 16 16 16 16 16 16 16 16 15 15 15 15 15 15 14 14 14 13 13 13 13 13 13 13 13 13 13 12 12 12 12 11 10 10 10 10 11 11 12 13
17 14 15 16 17 19 17 21 18 17 17 16 16 17 16 16 15 15 15 16 16 16 15 14 14 14 13 13 14 14 15 15 15 14 15 14 14 14 14 13 13 12 11 11 12 12 13 14 14
15 14 15 16 18 19 19 20 19 17 18 17 17 16 16 16 16 16 15 15 15 15 16 16 14 14 14 14 14 15 15 15 15 15 16 15 15 14 14 14 14 14 13 13 12 12 13 13 14
14 15 16 17 18 21 18 18 18 18 17 17 16 16 15 15 16 16 15 15 16 16 16 16 16 16 15 15 15 15 16 16 16 16 16 16 16 16 15 15 15 15 15 14 13 13 13 13 13
16 17 20 21 21 20 17 19 17 16 15 15 16 16 16 16 16 16 16 16 16 16 16 15 16 16 16 16 15 15 16 16 17 17 17 17 17 17 16 16 16 16 15 15 15 15 14 13 14
16 16 19 24 22 20 18 19 17 16 14 14 14 15 16 16 16 16 16 16 16 16 16 16 15 16 16 16 16 16 15 15 16 16 17 17 17 17 16 17 16 16 16 16 16 16 16 16 15
16 17 15 18 26 22 19 18 16 16 16 16 16 16 17 16 16 16 15 15 15 15 15 15 16 16 15 15 15 15 14 14 14 14 15 16 16 15 15 16 17 16 16 16 16 17 17 17 16
14 14 17 18 24 25 20 19 18 18 17 17 17 16 16 15 16 16 15 15 15 15 15 15 14 14 14 14 14 14 14 14 13 13 14 14 14 14 14 14 14 14 15 16 16 16 16 17 16
16 17 16 16 18 23 25 20 16 15 15 16 15 14 14 15 15 15 15 15 15 15 15 15 15 14 14 14 14 15 15 14 14 14 14 14 14 14 14 14 14 14 14 14 15 16 16 16 16
14 15 15 16 19 19 18 18 14 13 13 13 13 13 14 14 15 15 15 14 14 14 14 15 15 15 14 14 14 14 14 14 15 15 15 14 14 14 14 14 14 14 14 14 14 15 15 16 16